QPF
0.01 0.00 0.00 0.00 0.00 0.00 0.00 0.00 0.00 0.00 0.00 0.00 0.00 0.00 0.00 0.00 0.00 0.00 0.00 0.00 0.00 0.00 0.00 0.00 0.00 0.00 0.00 0.00 0.00 0.00 0.00 0.00 0.00 0.00 0.01 0.01 0.02 0.02
0.00 0.00 0.00 0.00 0.00 0.00 0.00 0.00 0.00 0.00 0.00 0.00 0.00 0.00 0.00 0.00 0.00 0.00 0.00 0.00 0.00 0.00 0.00 0.00 0.00 0.00 0.00 0.00 0.00 0.00 0.00 0.00 0.00 0.01 0.01 0.02 0.02 0.03
0.00 0.00 0.00 0.00 0.00 0.00 0.00 0.00 0.00 0.00 0.01 0.00 0.00 0.00 0.01 0.01 0.00 0.00 0.00 0.00 0.00 0.00 0.00 0.00 0.00 0.00 0.00 0.00 0.00 0.00 0.00 0.00 0.00 0.01 0.01 0.01 0.02 0.02
0.00 0.00 0.00 0.00 0.00 0.00 0.00 0.01 0.01 0.01 0.01 0.01 0.01 0.01 0.01 0.01 0.01 0.01 0.00 0.00 0.00 0.00 0.00 0.00 0.00 0.00 0.00 0.00 0.00 0.00 0.00 0.00 0.00 0.00 0.00 0.01 0.01 0.02
0.00 0.00 0.00 0.00 0.01 0.01 0.01 0.01 0.02 0.01 0.02 0.02 0.01 0.01 0.01 0.01 0.01 0.01 0.01 0.02 0.01 0.00 0.00 0.00 0.00 0.00 0.00 0.00 0.00 0.00 0.00 0.00 0.00 0.00 0.00 0.00 0.01 0.01
0.00 0.00 0.00 0.01 0.01 0.02 0.02 0.03 0.03 0.03 0.03 0.03 0.02 0.02 0.01 0.01 0.02 0.02 0.01 0.01 0.01 0.01 0.01 0.01 0.01 0.00 0.00 0.00 0.00 0.00 0.00 0.00 0.00 0.00 0.00 0.00 0.00 0.00
0.00 0.00 0.00 0.00 0.01 0.01 0.01 0.02 0.03 0.04 0.03 0.03 0.02 0.02 0.02 0.03 0.03 0.03 0.02 0.02 0.01 0.02 0.03 0.02 0.02 0.02 0.03 0.02 0.01 0.00 0.00 0.00 0.00 0.00 0.00 0.00 0.00 0.00
0.00 0.00 0.00 0.00 0.00 0.00 0.00 0.01 0.01 0.02 0.02 0.03 0.03 0.03 0.03 0.04 0.05 0.04 0.04 0.04 0.03 0.03 0.03 0.02 0.02 0.03 0.04 0.03 0.01 0.00 0.00 0.00 0.00 0.00 0.00 0.00 0.00 0.00
0.00 0.01 0.01 0.01 0.01 0.02 0.01 0.01 0.02 0.01 0.01 0.02 0.04 0.05 0.05 0.06 0.06 0.04 0.05 0.05 0.04 0.04 0.05 0.03 0.03 0.04 0.02 0.01 0.00 0.00 0.00 0.00 0.00 0.00 0.00 0.00 0.00 0.00
0.01 0.01 0.01 0.01 0.01 0.00 0.01 0.02 0.04 0.04 0.04 0.03 0.05 0.05 0.04 0.04 0.04 0.04 0.04 0.04 0.03 0.05 0.06 0.04 0.03 0.03 0.02 0.04 0.02 0.00 0.00 0.00 0.00 0.00 0.00 0.00 0.00 0.00
0.01 0.01 0.01 0.01 0.01 0.00 0.01 0.02 0.04 0.07 0.04 0.02 0.02 0.01 0.01 0.01 0.01 0.03 0.05 0.05 0.05 0.04 0.05 0.05 0.03 0.03 0.02 0.03 0.03 0.01 0.00 0.00 0.00 0.00 0.00 0.00 0.00 0.00
0.01 0.02 0.01 0.00 0.01 0.01 0.01 0.03 0.05 0.05 0.04 0.03 0.04 0.04 0.05 0.04 0.01 0.03 0.05 0.05 0.05 0.04 0.05 0.05 0.04 0.04 0.03 0.02 0.03 0.04 0.04 0.03 0.01 0.01 0.01 0.01 0.01 0.03
0.01 0.02 0.02 0.01 0.01 0.01 0.02 0.03 0.04 0.02 0.03 0.05 0.06 0.07 0.07 0.06 0.05 0.04 0.04 0.05 0.05 0.05 0.05 0.04 0.05 0.05 0.05 0.03 0.02 0.03 0.05 0.05 0.05 0.04 0.03 0.01 0.01 0.02
0.02 0.02 0.01 0.01 0.01 0.01 0.01 0.02 0.02 0.02 0.06 0.07 0.06 0.06 0.06 0.05 0.03 0.02 0.03 0.03 0.04 0.04 0.04 0.05 0.05 0.06 0.05 0.03 0.03 0.02 0.03 0.05 0.05 0.06 0.07 0.05 0.04 0.03
0.02 0.01 0.01 0.01 0.01 0.03 0.02 0.01 0.03 0.07 0.07 0.07 0.07 0.06 0.05 0.04 0.03 0.03 0.03 0.04 0.04 0.03 0.02 0.03 0.05 0.05 0.05 0.05 0.04 0.04 0.03 0.03 0.04 0.05 0.06 0.06 0.06 0.06
0.02 0.02 0.02 0.02 0.03 0.05 0.05 0.06 0.08 0.06 0.04 0.06 0.06 0.06 0.06 0.06 0.05 0.03 0.03 0.04 0.04 0.04 0.03 0.03 0.04 0.04 0.05 0.05 0.05 0.05 0.05 0.04 0.04 0.05 0.06 0.06 0.05 0.05
0.01 0.04 0.05 0.04 0.05 0.06 0.06 0.07 0.08 0.07 0.06 0.07 0.07 0.07 0.06 0.06 0.05 0.04 0.04 0.04 0.04 0.04 0.03 0.03 0.03 0.04 0.04 0.03 0.03 0.04 0.04 0.04 0.04 0.04 0.05 0.05 0.05 0.04
0.02 0.04 0.03 0.02 0.02 0.03 0.03 0.04 0.05 0.05 0.05 0.06 0.07 0.07 0.07 0.06 0.06 0.05 0.05 0.04 0.05 0.05 0.04 0.03 0.03 0.03 0.04 0.03 0.02 0.03 0.04 0.04 0.04 0.04 0.04 0.04 0.04 0.04
0.03 0.03 0.03 0.02 0.02 0.02 0.03 0.03 0.03 0.04 0.04 0.06 0.07 0.07 0.07 0.06 0.06 0.06 0.05 0.05 0.05 0.05 0.05 0.04 0.03 0.03 0.04 0.04 0.04 0.03 0.03 0.04 0.04 0.04 0.04 0.05 0.05 0.05
0.02 0.01 0.01 0.01 0.01 0.02 0.02 0.02 0.02 0.03 0.04 0.04 0.05 0.06 0.06 0.06 0.06 0.06 0.06 0.04 0.04 0.04 0.05 0.05 0.03 0.03 0.04 0.06 0.06 0.05 0.03 0.02 0.02 0.03 0.03 0.05 0.06 0.05
0.01 0.01 0.01 0.01 0.00 0.01 0.01 0.01 0.02 0.02 0.02 0.02 0.03 0.03 0.04 0.05 0.05 0.05 0.05 0.03 0.04 0.04 0.04 0.04 0.03 0.02 0.03 0.05 0.06 0.06 0.05 0.02 0.02 0.02 0.02 0.03 0.03 0.03
0.01 0.01 0.01 0.00 0.00 0.00 0.00 0.00 0.01 0.01 0.01 0.01 0.01 0.02 0.03 0.03 0.03 0.03 0.04 0.05 0.05 0.05 0.04 0.04 0.04 0.03 0.03 0.04 0.05 0.06 0.06 0.05 0.03 0.01 0.02 0.02 0.03 0.04
0.00 0.00 0.00 0.00 0.00 0.00 0.00 0.00 0.00 0.00 0.00 0.00 0.01 0.02 0.03 0.03 0.03 0.02 0.03 0.03 0.04 0.04 0.04 0.04 0.05 0.04 0.03 0.04 0.05 0.05 0.05 0.04 0.04 0.03 0.02 0.03 0.04 0.07
MSLP
1023.49 1023.28 1023.01 1022.67 1022.29 1021.87 1021.44 1021.02 1020.64 1020.30 1020.02 1019.82 1019.69 1019.63 1019.64 1019.69 1019.78 1019.88 1019.97 1020.02 1020.02 1019.96 1019.84 1019.67 1019.47 1019.25 1019.03 1018.84 1018.67 1018.53 1018.41 1018.32 1018.22 1018.12 1018.00 1017.87 1017.73 1017.58
1023.89 1023.69 1023.42 1023.08 1022.70 1022.26 1021.80 1021.33 1020.88 1020.46 1020.09 1019.79 1019.56 1019.41 1019.33 1019.32 1019.35 1019.39 1019.44 1019.46 1019.44 1019.37 1019.25 1019.10 1018.92 1018.73 1018.55 1018.40 1018.27 1018.18 1018.10 1018.02 1017.93 1017.81 1017.67 1017.49 1017.28 1017.07
1024.17 1023.96 1023.68 1023.36 1022.97 1022.54 1022.08 1021.59 1021.10 1020.63 1020.19 1019.81 1019.49 1019.24 1019.07 1018.96 1018.89 1018.86 1018.84 1018.81 1018.75 1018.66 1018.54 1018.40 1018.24 1018.09 1017.96 1017.86 1017.79 1017.74 1017.70 1017.66 1017.58 1017.47 1017.30 1017.09 1016.84 1016.56
1024.34 1024.11 1023.83 1023.50 1023.14 1022.73 1022.28 1021.81 1021.32 1020.82 1020.34 1019.90 1019.50 1019.16 1018.88 1018.66 1018.49 1018.36 1018.25 1018.15 1018.04 1017.92 1017.78 1017.64 1017.50 1017.38 1017.28 1017.23 1017.20 1017.20 1017.20 1017.18 1017.12 1017.02 1016.85 1016.61 1016.34 1016.03
1024.45 1024.18 1023.89 1023.57 1023.22 1022.85 1022.44 1022.00 1021.53 1021.04 1020.55 1020.06 1019.59 1019.16 1018.78 1018.46 1018.18 1017.94 1017.74 1017.55 1017.38 1017.21 1017.04 1016.88 1016.75 1016.63 1016.56 1016.52 1016.52 1016.54 1016.56 1016.56 1016.52 1016.43 1016.26 1016.03 1015.75 1015.43
1024.53 1024.22 1023.91 1023.59 1023.27 1022.94 1022.58 1022.19 1021.75 1021.28 1020.79 1020.27 1019.76 1019.25 1018.78 1018.35 1017.97 1017.63 1017.33 1017.06 1016.82 1016.60 1016.39 1016.20 1016.05 1015.92 1015.84 1015.79 1015.79 1015.80 1015.82 1015.82 1015.79 1015.70 1015.55 1015.33 1015.06 1014.75
1024.59 1024.24 1023.92 1023.61 1023.32 1023.02 1022.71 1022.36 1021.97 1021.53 1021.03 1020.50 1019.94 1019.38 1018.84 1018.32 1017.85 1017.43 1017.05 1016.71 1016.40 1016.13 1015.88 1015.66 1015.46 1015.30 1015.18 1015.10 1015.06 1015.04 1015.02 1015.00 1014.96 1014.86 1014.72 1014.52 1014.27 1013.99
1024.64 1024.28 1023.94 1023.64 1023.36 1023.10 1022.82 1022.51 1022.15 1021.72 1021.23 1020.69 1020.10 1019.50 1018.90 1018.32 1017.79 1017.31 1016.87 1016.48 1016.14 1015.83 1015.54 1015.27 1015.04 1014.82 1014.65 1014.50 1014.39 1014.30 1014.23 1014.16 1014.08 1013.97 1013.83 1013.64 1013.42 1013.18
1024.67 1024.29 1023.96 1023.66 1023.40 1023.16 1022.90 1022.60 1022.25 1021.83 1021.33 1020.77 1020.16 1019.53 1018.90 1018.30 1017.74 1017.23 1016.77 1016.37 1016.01 1015.67 1015.36 1015.06 1014.78 1014.51 1014.26 1014.04 1013.84 1013.67 1013.52 1013.38 1013.24 1013.09 1012.92 1012.74 1012.54 1012.33
1024.66 1024.29 1023.95 1023.66 1023.40 1023.15 1022.89 1022.59 1022.23 1021.79 1021.28 1020.70 1020.08 1019.44 1018.80 1018.20 1017.65 1017.15 1016.71 1016.32 1015.97 1015.64 1015.32 1015.00 1014.68 1014.36 1014.04 1013.73 1013.44 1013.17 1012.92 1012.69 1012.48 1012.27 1012.07 1011.87 1011.67 1011.47
1024.61 1024.24 1023.90 1023.60 1023.32 1023.05 1022.76 1022.43 1022.04 1021.57 1021.04 1020.45 1019.83 1019.19 1018.57 1018.00 1017.48 1017.03 1016.63 1016.28 1015.97 1015.67 1015.36 1015.04 1014.69 1014.33 1013.95 1013.56 1013.17 1012.81 1012.46 1012.14 1011.84 1011.57 1011.32 1011.08 1010.86 1010.65
1024.52 1024.13 1023.78 1023.45 1023.14 1022.83 1022.50 1022.12 1021.68 1021.18 1020.62 1020.02 1019.40 1018.79 1018.21 1017.68 1017.22 1016.83 1016.50 1016.21 1015.95 1015.69 1015.41 1015.10 1014.74 1014.35 1013.92 1013.47 1013.02 1012.57 1012.14 1011.74 1011.36 1011.01 1010.69 1010.40 1010.14 1009.90
1024.39 1023.99 1023.60 1023.22 1022.86 1022.49 1022.09 1021.65 1021.17 1020.63 1020.05 1019.45 1018.84 1018.26 1017.73 1017.27 1016.88 1016.56 1016.30 1016.07 1015.87 1015.65 1015.40 1015.11 1014.76 1014.35 1013.91 1013.42 1012.93 1012.43 1011.93 1011.46 1011.02 1010.60 1010.22 1009.87 1009.55 1009.27
1024.25 1023.79 1023.35 1022.92 1022.48 1022.04 1021.58 1021.08 1020.55 1019.98 1019.39 1018.79 1018.21 1017.67 1017.19 1016.79 1016.47 1016.21 1016.01 1015.84 1015.69 1015.51 1015.29 1015.01 1014.68 1014.29 1013.84 1013.36 1012.85 1012.33 1011.81 1011.31 1010.82 1010.36 1009.92 1009.50 1009.12 1008.79
1024.09 1023.57 1023.06 1022.55 1022.05 1021.55 1021.02 1020.48 1019.90 1019.31 1018.71 1018.13 1017.58 1017.08 1016.65 1016.30 1016.03 1015.82 1015.67 1015.54 1015.40 1015.25 1015.05 1014.80 1014.49 1014.12 1013.70 1013.24 1012.75 1012.25 1011.75 1011.25 1010.75 1010.27 1009.79 1009.33 1008.90 1008.50
1023.92 1023.33 1022.75 1022.18 1021.62 1021.05 1020.48 1019.90 1019.31 1018.71 1018.12 1017.55 1017.03 1016.57 1016.18 1015.86 1015.62 1015.44 1015.29 1015.17 1015.05 1014.90 1014.71 1014.47 1014.18 1013.84 1013.47 1013.06 1012.63 1012.19 1011.73 1011.27 1010.80 1010.32 1009.84 1009.36 1008.89 1008.44
1023.74 1023.09 1022.46 1021.84 1021.24 1020.64 1020.04 1019.45 1018.85 1018.26 1017.68 1017.14 1016.64 1016.20 1015.83 1015.53 1015.29 1015.10 1014.95 1014.81 1014.66 1014.50 1014.30 1014.07 1013.80 1013.50 1013.18 1012.84 1012.49 1012.12 1011.75 1011.36 1010.95 1010.51 1010.05 1009.58 1009.09 1008.61
1023.56 1022.88 1022.22 1021.59 1020.97 1020.37 1019.78 1019.19 1018.60 1018.02 1017.46 1016.94 1016.45 1016.03 1015.65 1015.34 1015.08 1014.86 1014.67 1014.49 1014.31 1014.11 1013.89 1013.66 1013.40 1013.14 1012.87 1012.60 1012.33 1012.06 1011.78 1011.48 1011.15 1010.78 1010.38 1009.93 1009.46 1008.98
1023.41 1022.74 1022.09 1021.48 1020.88 1020.30 1019.73 1019.16 1018.60 1018.04 1017.50 1016.98 1016.49 1016.05 1015.66 1015.32 1015.02 1014.76 1014.51 1014.28 1014.04 1013.80 1013.56 1013.31 1013.06 1012.82 1012.59 1012.39 1012.19 1012.01 1011.82 1011.61 1011.37 1011.08 1010.74 1010.36 1009.92 1009.47
1023.33 1022.70 1022.10 1021.53 1020.99 1020.45 1019.92 1019.38 1018.84 1018.30 1017.76 1017.24 1016.74 1016.28 1015.85 1015.46 1015.11 1014.79 1014.48 1014.19 1013.91 1013.62 1013.34 1013.07 1012.81 1012.58 1012.38 1012.21 1012.07 1011.95 1011.83 1011.70 1011.54 1011.34 1011.08 1010.76 1010.40 1010.00
1023.35 1022.80 1022.28 1021.78 1021.30 1020.82 1020.33 1019.82 1019.30 1018.76 1018.22 1017.68 1017.15 1016.64 1016.17 1015.73 1015.32 1014.95 1014.59 1014.25 1013.91 1013.59 1013.27 1012.97 1012.70 1012.46 1012.26 1012.10 1011.98 1011.88 1011.81 1011.73 1011.63 1011.50 1011.32 1011.08 1010.79 1010.47
1023.51 1023.05 1022.62 1022.21 1021.79 1021.37 1020.92 1020.44 1019.92 1019.37 1018.80 1018.23 1017.65 1017.10 1016.58 1016.09 1015.63 1015.21 1014.81 1014.42 1014.06 1013.70 1013.36 1013.03 1012.73 1012.46 1012.23 1012.05 1011.91 1011.81 1011.74 1011.67 1011.61 1011.52 1011.40 1011.24 1011.04 1010.81
1023.81 1023.45 1023.11 1022.77 1022.42 1022.04 1021.61 1021.14 1020.61 1020.04 1019.44 1018.81 1018.19 1017.59 1017.02 1016.48 1015.99 1015.53 1015.10 1014.70 1014.31 1013.94 1013.57 1013.22 1012.88 1012.58 1012.30 1012.07 1011.88 1011.74 1011.63 1011.55 1011.49 1011.42 1011.35 1011.25 1011.13 1010.98
Thickness
5578 5575 5573 5571 5568 5564 5561 5558 5555 5556 5555 5550 5544 5538 5532 5527 5523 5520 5518 5517 5513 5509 5507 5506 5504 5504 5503 5503 5503 5502 5502 5501 5501 5501 5502 5502 5503 5504
5559 5556 5553 5553 5548 5545 5542 5539 5535 5532 5531 5529 5523 5520 5513 5508 5506 5504 5503 5500 5498 5497 5493 5491 5490 5489 5488 5488 5488 5487 5487 5486 5486 5487 5487 5487 5488 5489
5542 5539 5535 5530 5529 5525 5522 5518 5514 5510 5509 5508 5504 5501 5496 5492 5491 5490 5489 5489 5490 5488 5483 5479 5477 5476 5476 5475 5475 5474 5474 5473 5473 5473 5473 5474 5475 5476
5524 5520 5517 5513 5507 5505 5501 5498 5494 5489 5487 5487 5486 5484 5483 5480 5479 5477 5477 5479 5477 5476 5473 5470 5468 5467 5466 5465 5465 5464 5463 5462 5461 5461 5461 5462 5462 5463
5506 5502 5498 5493 5489 5487 5481 5479 5477 5474 5471 5470 5471 5471 5471 5471 5469 5468 5469 5467 5467 5468 5466 5465 5463 5461 5459 5458 5458 5457 5455 5454 5453 5452 5451 5451 5452 5453
5489 5485 5481 5476 5472 5468 5466 5463 5461 5458 5458 5457 5459 5461 5461 5461 5459 5460 5461 5461 5459 5459 5460 5459 5458 5457 5456 5454 5453 5451 5449 5447 5445 5444 5443 5443 5443 5444
5475 5471 5467 5459 5453 5450 5449 5448 5447 5446 5447 5447 5449 5451 5452 5451 5450 5450 5450 5451 5453 5453 5453 5454 5454 5454 5453 5452 5449 5446 5443 5440 5439 5437 5436 5436 5436 5436
5463 5460 5456 5452 5445 5440 5437 5435 5433 5435 5437 5437 5439 5440 5441 5441 5441 5441 5442 5443 5446 5447 5446 5448 5449 5449 5448 5447 5444 5440 5436 5434 5432 5431 5430 5429 5429 5429
5453 5450 5448 5446 5439 5436 5434 5433 5433 5430 5428 5429 5432 5433 5434 5436 5435 5437 5437 5437 5438 5440 5440 5443 5444 5444 5444 5443 5438 5434 5431 5428 5426 5425 5424 5423 5423 5422
5446 5442 5440 5437 5433 5427 5428 5432 5434 5434 5431 5430 5430 5430 5431 5431 5431 5432 5432 5433 5435 5438 5437 5438 5441 5440 5440 5438 5433 5430 5427 5424 5422 5421 5419 5418 5418 5417
5442 5439 5435 5432 5425 5422 5424 5430 5434 5435 5434 5431 5429 5429 5428 5427 5426 5428 5431 5432 5435 5437 5434 5433 5434 5434 5435 5435 5431 5427 5424 5422 5419 5417 5416 5415 5414 5413
5439 5437 5432 5428 5424 5422 5424 5430 5433 5434 5435 5435 5434 5433 5432 5432 5429 5427 5429 5430 5431 5432 5431 5427 5427 5426 5428 5431 5428 5425 5423 5420 5418 5416 5414 5412 5410 5411
5436 5435 5433 5427 5426 5425 5425 5429 5431 5430 5434 5436 5438 5439 5438 5437 5435 5432 5430 5429 5429 5428 5427 5423 5423 5422 5421 5422 5425 5424 5421 5419 5417 5416 5414 5411 5409 5407
5433 5433 5433 5430 5429 5430 5431 5432 5431 5431 5437 5439 5441 5442 5441 5440 5438 5436 5433 5430 5428 5427 5425 5422 5421 5420 5419 5419 5420 5420 5419 5417 5416 5415 5413 5410 5409 5406
5434 5433 5432 5433 5434 5437 5436 5436 5435 5439 5441 5443 5444 5443 5443 5441 5440 5438 5436 5433 5432 5430 5428 5424 5422 5421 5419 5418 5417 5416 5416 5416 5414 5413 5412 5411 5408 5406
5438 5438 5438 5439 5440 5440 5441 5443 5443 5443 5443 5444 5445 5446 5445 5444 5443 5442 5439 5436 5436 5434 5431 5428 5426 5423 5422 5421 5418 5416 5414 5413 5413 5413 5412 5410 5407 5405
5433 5441 5444 5446 5447 5447 5448 5448 5447 5447 5447 5447 5448 5449 5449 5448 5446 5444 5441 5439 5437 5436 5435 5433 5431 5428 5425 5422 5420 5417 5416 5415 5414 5413 5412 5411 5408 5404
5436 5444 5445 5447 5447 5447 5448 5449 5449 5449 5449 5449 5450 5450 5450 5450 5449 5446 5445 5442 5441 5438 5436 5435 5434 5433 5430 5426 5417 5418 5418 5416 5416 5414 5413 5411 5408 5404
5441 5444 5444 5445 5445 5446 5446 5447 5448 5449 5448 5449 5449 5450 5450 5450 5450 5448 5447 5445 5444 5441 5439 5437 5436 5434 5432 5429 5425 5417 5418 5418 5417 5417 5415 5411 5409 5405
5443 5443 5443 5443 5443 5444 5445 5445 5447 5448 5449 5449 5450 5449 5449 5450 5450 5449 5448 5446 5446 5444 5443 5441 5439 5435 5432 5429 5427 5424 5419 5419 5418 5417 5415 5414 5411 5406
5441 5441 5441 5441 5441 5443 5444 5445 5446 5447 5448 5449 5449 5448 5449 5449 5449 5450 5449 5445 5446 5447 5446 5444 5440 5435 5436 5436 5435 5431 5426 5420 5417 5415 5415 5415 5413 5410
5438 5438 5439 5439 5440 5441 5443 5444 5446 5447 5447 5448 5448 5448 5448 5449 5450 5450 5450 5450 5449 5449 5448 5447 5445 5444 5443 5442 5440 5437 5434 5428 5421 5417 5414 5412 5410 5408
5434 5434 5437 5438 5438 5439 5440 5441 5442 5444 5444 5444 5445 5446 5447 5448 5449 5450 5451 5451 5451 5450 5450 5449 5448 5448 5447 5446 5445 5443 5440 5437 5433 5427 5421 5414 5411 5408